Change the Weather History Date:

Saturday, February 9, 2013

  Actual Average Record
Temperature  
Mean Temperature 36 °F -  
Max Temperature 39 °F 41 °F 50 °F (2005)
Min Temperature 34 °F 28 °F 21 °F (2001)
Degree Days  
Heating Degree Days 30    
Moisture  
Dew Point 33 °F    
Average Humidity 91    
Maximum Humidity 96    
Minimum Humidity 73    
Precipitation  
Precipitation 0.02 in - - ()
Sea Level Pressure  
Sea Level Pressure 30.16 in    
Wind  
Wind Speed 0 mph (North)    
Max Wind Speed 0 mph    
Max Gust Speed -    
Averages and records for this station are not official NWS values.
T = Trace of Precipitation, MM = Missing Value Source: NWS Daily Summary

Daily Weather History Graph

Daily Weather History Graph

Search for Another Location

Airport or City:

Trip Planner

Search our weather history database for the weather conditions in past years. The results will help you decide how hot, cold, wet, or windy it might be!

Date:

Astronomy

Feb. 09, 2013 Rise Set
Actual Time 7:53 AM MST 5:59 PM MST
Civil Twilight 7:22 AM MST 6:31 PM MST
Nautical Twilight 6:47 AM MST 7:06 PM MST
Astronomical Twilight 6:12 AM MST 7:41 PM MST
Moon 7:07 AM MST (2/9) 5:49 PM MST (2/9)
Length of Visible Light 11h 08m
Length of Day
10h 06m
Waning Crescent, 0% of the Moon is Illuminated
Feb 9
Waning Crescent
Feb 10
New
Feb 17
First Quarter
Feb 25
Full
Mar 4
Last Quarter

Hourly Weather History & Observations

Time (MST) Temp. Dew Point Humidity Pressure Visibility Wind Dir Wind Speed Gust Speed Precip Events Conditions
12:52 AM 35.1 °F 33.1 °F 92% 30.16 in - Calm Calm - N/A   Unknown
1:52 AM 35.1 °F 33.1 °F 92% 30.15 in - Calm Calm - N/A   Unknown
2:52 AM 34.0 °F 33.1 °F 96% 30.16 in - Calm Calm - N/A   Unknown
3:52 AM 34.0 °F 33.1 °F 96% 30.15 in - Calm Calm - N/A   Unknown
4:52 AM 34.0 °F 33.1 °F 96% 30.15 in - Calm Calm - N/A   Unknown
5:52 AM 34.0 °F 33.1 °F 96% 30.14 in - Calm Calm - N/A   Unknown
6:52 AM 34.0 °F 33.1 °F 96% 30.14 in - Calm Calm - N/A   Unknown
7:52 AM 34.0 °F 33.1 °F 96% 30.15 in - Calm Calm - N/A   Unknown
8:52 AM 34.0 °F 33.1 °F 96% 30.17 in - Calm Calm - N/A   Unknown
9:52 AM 35.1 °F 33.1 °F 92% 30.16 in - Calm Calm - N/A   Unknown
10:52 AM 36.0 °F 33.1 °F 89% 30.17 in - Calm Calm - N/A   Unknown
11:52 AM 37.9 °F 33.1 °F 83% 30.15 in - Calm Calm - N/A   Unknown
12:52 PM 37.0 °F 32.0 °F 82% 30.14 in - Calm Calm - N/A   Unknown
1:52 PM 37.9 °F 30.0 °F 73% 30.12 in - Calm Calm - N/A   Unknown
2:52 PM 37.0 °F 33.1 °F 86% 30.12 in - Calm Calm - N/A   Unknown
3:52 PM 37.0 °F 33.1 °F 86% 30.13 in - Calm Calm - N/A   Unknown
4:52 PM 36.0 °F 33.1 °F 89% 30.13 in - Calm Calm - N/A   Unknown
5:52 PM 35.1 °F 33.1 °F 92% 30.15 in - Calm Calm - N/A   Unknown
6:52 PM 34.0 °F 33.1 °F 96% 30.17 in - Calm Calm - 0.01 in   Unknown
7:52 PM 34.0 °F 33.1 °F 96% 30.19 in - Calm Calm - N/A   Unknown
8:52 PM 34.0 °F 33.1 °F 96% 30.20 in - Calm Calm - 0.01 in   Unknown
9:52 PM 34.0 °F 33.1 °F 96% 30.21 in - Calm Calm - N/A   Unknown
10:52 PM 34.0 °F 32.0 °F 92% 30.22 in - Calm Calm - N/A   Unknown
11:52 PM 34.0 °F 32.0 °F 92% 30.23 in - Calm Calm - N/A   Unknown